Location: Moscow
(55.7500°N, 37.5830°E)
Time: 10:20:48
(UTC+03:00)

Vanguard 3 - Pass Details

Date: 07 December 2021
Orbit: 508 x 3260 km, 33.3° (Epoch: 19 January)

Event Time Altitude Azimuth Distance (km) Brightness Sun altitude
Rises 01:29:57 0° 192° (SSW) 6,637 - -54.5°
Reaches altitude 10° 01:36:27 10° 176° (S) 5,951 - -54.0°
Maximum altitude 01:47:09 18° 141° (SE) 5,503 - -53.2°
Exits shadow 01:47:58 18° 139° (SE) 5,509 11.2 -53.2°
Drops below altitude 10° 01:57:56 10° 107° (ESE) 6,048 11.7 -52.3°
Sets 02:04:32 0° 92° (E) 6,789 12.2 -51.7°
